Tracking 17996 objects as of 28-February-2017
HD Live streaming from Space Station
objects crossing your sky now

UNISAT 3

Track UNISAT 3 now!
10-day predictions
UNISAT 3 is classified as:


NORAD ID: 28373
Int'l Code: 2004-025H
Perigee: 698.9 km
Apogee: 797.0 km
Inclination: 98.3 °
Period: 99.6 minutes
Semi major axis: 7118 km
RCS: 0.116 m2 (medium)
Launch date: June 29, 2004
Source: Italy (IT)
Launch site: TYURATAM MISSILE AND SPACE COMPLEX (TTMTR)

Unisat 3 is an Italian, scientific microsatellite (12 kg) designed to test solar cells in the space environment.
Your satellite tracking list
Your tracking list is empty





NASA's NSSDC Master Catalog

Two Line Element Set (TLE):
1 28373U 04025H   17058.41812685  .00000069  00000-0  31543-4 0  9995
2 28373  98.3260   2.4440 0068883 182.0705 178.0212 14.45373066668047
Source of the keplerian elements: AFSPC